Вернуться в каталог

ICEYE-X46

АктивенНаукаSSO
NORAD 63258·PAYLOAD·🇫🇮 Finland

Запущен Mar 15, 2025 с Vandenberg Space Force Base

Loading…

Ближайшие Пролёты (ближайшие 24 часа)

TLE

СвежийSource: Space-Track

Эпоха: Sep 13, 2026, 22:44 UTC

1 63258U 25052BA  26256.94788817  .00000950  00000-0  90810-4 0  9997
2 63258  97.6754 147.0898 0001618  81.8523 278.2881 14.95530719 81913

Отслеживайте ICEYE-X46 в реальном времени с AllMySat

Download on the App Store